STARLINK-4568, 53622

Orbit data source: Space-Track

STARLINK-4568, 53622 is a payload satellite owned by SpaceX/Seattle (US) in LEO that was launched on Sun, 28 Aug 2022 UTC via an FALCON 9 launch vehicle from the Air Force Eastern Test Range (AFETR). Payload-class satellites include a variety of spacecraft equipped with specific instruments for various scientific and technological missions. These include communications satellites like Starlink; space stations such as the ISS; scientific satellites like the Hubble; Earth observation satellites from companies like Planet Labs, Umbra, and HawkEye 360; GPS; miniature CubeSats for education and research; and military/defense satellites.

Loading next visibility...
Identifier
53622, 2022-104AL
Orbit
LEO
Country
Flag of USUS
Related business
Manufacturer
SpaceX/Seattle
Mission
Operational Commercial Communications
Bus & Motor
STARLINK, Unknown motor
Mass
300 kg wet, ~290 kg dry
Launch date (UTC)
2022-08-28 (3 years ago)
Launch vehicle
FALCON 9
Launch site
Air Force Eastern Test Range (AFETR)
Object type
Payload
Rocket body
Debris
Shape & HBR
Box + 1 Pan, 10.1 m
Radar Cross Section
13.562 m², Large (>1 m²)

Expand to show TLE details & history
Last TLE update: 21 hours ago

TLE from 21 hours ago
0 STARLINK-4568
1 53622U 22104AL  25347.46500020  .00001157  00000-0  90741-4 0  9994
2 53622  53.2179 260.8072 0001162  93.7811 266.3314 15.08843456182731
Epoch: 2025-12-13T11:09Z
TLE epoch observation values (Epoch: 2025-12-13T11:09:36.017Z)
Latitude
-0.00002°
Longitude
11.01523°
Altitude
540.682 km
Speed
7.593 km/s
True Right ascension
17h 23m 13s
True Declination
0° 00' 00"
Sunlit
Object was in daylight at epoch
Visualization orbit readout
Latitude
Unknown
Longitude
Unknown
Altitude
Unknown
Speed
Unknown
Apparent Right ascension
Unknown
Apparent Declination
Unknown
Sunlit
N/A
Visualization observer readout
Local Sidereal Time
06:28:22
Azimuth
Unknown
Elevation
Unknown
Doppler factor
Unknown
Orbital elements
Apogee altitude
540.782 km
Perigee altitude
539.174 km
Semi-major axis
6,918.115 km
Eccentricity
0.00012
Inclination
53.2179°
RAAN
260.8072°
Arg. of periapsis
93.7811°
True anomaly
266.31811°
Mean anomaly
266.3314°
Eccentric anomaly
266.32476°
Mean motion
3.77191 °/min
Orbital period
95.44 mins
BSTAR
0.000090741
Loading maneuver chart data...
Computing Atmospheric mass density...
Loading historical data...
Loading historical data...
Loading historical data...
Loading historical data...
Loading historical data...
Loading historical data...
Loading historical data...

Documentation

Showing up to 5 results
|